Location: York
(31.8935°S, 116.7682°E)
Time: 18:00:46
(UTC+08:00)

deb Explorer IX - Pass Details

Date: 01 October 2022
Orbit: 533 x 1057 km, 38.8° (Epoch: 30 November)

Event Time Altitude Azimuth Distance (km) Brightness Sun altitude
Rises 00:10:11 0° 246° (WSW) 2,929 - -55.1°
Reaches altitude 10° 00:12:38 10° 244° (WSW) 1,951 - -55.1°
Maximum altitude 00:17:04 78° 158° (SSE) 577 - -55.0°
Drops below altitude 10° 00:21:08 10° 70° (ENE) 1,795 - -54.9°
Sets 00:23:19 0° 68° (ENE) 2,672 - -54.8°
